Satellite-Ground Cal/Val Region Overpasses Predictions

Prediction of Satellite NPP Overpassing Cal/Val Region: PacNW

Region Location: (Latitude: 10.00, Longitude: 139.50) to (Latitude: 22.70, Longitude: 165.60).

Table of predicted overpasses for the next 14.0 days since TLE Epoch: 8/23/2019
Interval Starting Time Starting Location Ending Time Ending Location
1 08/24/2019 02:27:00 ( 10.00, 163.02) 08/24/2019 02:30:36 ( 22.68, 160.00)
2 08/24/2019 14:58:54 ( 22.65, 160.25) 08/24/2019 15:02:29 ( 10.03, 157.25)
3 08/25/2019 02:10:37 ( 19.30, 165.59) 08/25/2019 02:11:34 ( 22.64, 164.77)
4 08/25/2019 03:49:29 ( 10.03, 142.40) 08/25/2019 03:52:56 ( 22.18, 139.51)
5 08/25/2019 14:39:52 ( 22.69, 165.02) 08/25/2019 14:43:28 ( 10.01, 162.00)
6 08/25/2019 16:21:22 ( 22.69, 139.64) 08/25/2019 16:21:31 ( 22.16, 139.51)
7 08/26/2019 03:30:27 ( 10.05, 147.15) 08/26/2019 03:34:02 ( 22.67, 144.15)
8 08/26/2019 16:02:20 ( 22.67, 144.40) 08/26/2019 16:05:55 ( 10.05, 141.39)
9 08/27/2019 03:11:25 ( 10.01, 151.92) 08/27/2019 03:15:01 ( 22.69, 148.90)
10 08/27/2019 15:43:19 ( 22.65, 149.15) 08/27/2019 15:46:54 ( 10.03, 146.14)
11 08/28/2019 02:52:23 ( 10.03, 156.67) 08/28/2019 02:55:58 ( 22.65, 153.67)
12 08/28/2019 15:24:16 ( 22.69, 153.92) 08/28/2019 15:27:52 ( 10.01, 150.90)
13 08/29/2019 02:33:22 ( 10.05, 161.43) 08/29/2019 02:36:57 ( 22.67, 158.42)
14 08/29/2019 15:05:15 ( 22.67, 158.67) 08/29/2019 15:08:50 ( 10.05, 155.67)
15 08/30/2019 02:15:03 ( 12.60, 165.60) 08/30/2019 02:17:55 ( 22.69, 163.17)
16 08/30/2019 03:55:49 ( 10.02, 140.82) 08/30/2019 03:57:25 ( 15.66, 139.51)
17 08/30/2019 14:46:13 ( 22.65, 163.42) 08/30/2019 14:49:48 ( 10.03, 160.42)
18 08/31/2019 03:36:48 ( 10.04, 145.57) 08/31/2019 03:40:23 ( 22.66, 142.57)
19 08/31/2019 14:30:16 ( 11.83, 165.59) 08/31/2019 14:30:47 ( 10.01, 165.17)
20 08/31/2019 16:08:41 ( 22.68, 142.82) 08/31/2019 16:12:17 ( 10.00, 139.80)
21 09/01/2019 03:17:46 ( 10.06, 150.33) 09/01/2019 03:21:21 ( 22.68, 147.32)
22 09/01/2019 15:49:39 ( 22.66, 147.57) 09/01/2019 15:53:14 ( 10.04, 144.56)
23 09/02/2019 02:58:44 ( 10.02, 155.09) 09/02/2019 03:02:19 ( 22.64, 152.09)
24 09/02/2019 15:30:37 ( 22.70, 152.34) 09/02/2019 15:34:13 ( 10.02, 149.32)
25 09/03/2019 02:39:43 ( 10.04, 159.85) 09/03/2019 02:43:18 ( 22.67, 156.84)
26 09/03/2019 15:11:35 ( 22.67, 157.09) 09/03/2019 15:15:10 ( 10.06, 154.09)
27 09/04/2019 02:20:40 ( 10.01, 164.61) 09/04/2019 02:24:16 ( 22.69, 161.59)
28 09/04/2019 14:52:34 ( 22.65, 161.84) 09/04/2019 14:56:09 ( 10.03, 158.84)
29 09/05/2019 03:43:09 ( 10.04, 143.99) 09/05/2019 03:46:44 ( 22.66, 140.99)
30 09/05/2019 14:34:42 ( 18.53, 165.59) 09/05/2019 14:37:07 ( 10.01, 163.59)
31 09/05/2019 16:15:01 ( 22.68, 141.23) 09/05/2019 16:17:02 ( 15.59, 139.51)
32 09/06/2019 03:24:07 ( 10.06, 148.74) 09/06/2019 03:27:42 ( 22.68, 145.74)


NCC Satellite Cal/Val Overpasses Prediction Service
